Wetterdaten: Montag, 29.12.2014
Datum Zeit Temperatur Luftfeuchte Luftdruck Regen Wind Richtung Richtung Taupunkt Windchill Windben
29.12.2014 00:00 -9,1 C 82 % 1025,5 hPa 0,0 l/m 3,1 km/h (1 Bft) N 360 -11,6 C -11,2 C 2,9 km/h (1 Bft)
29.12.2014 00:05 -9,2 C 82 % 1025,5 hPa 0,0 l/m 3,7 km/h (1 Bft) NW 315 -11,7 C -11,7 C 5,8 km/h (2 Bft)
29.12.2014 00:10 -9,3 C 81 % 1025,5 hPa 0,0 l/m 4,0 km/h (1 Bft) NW 315 -11,9 C -12,2 C 6,3 km/h (2 Bft)
29.12.2014 00:15 -9,4 C 81 % 1025,5 hPa 0,0 l/m 4,2 km/h (1 Bft) NW 315 -12,0 C -12,3 C 8,5 km/h (2 Bft)
29.12.2014 00:20 -9,5 C 81 % 1026,0 hPa 0,0 l/m 4,3 km/h (1 Bft) N-NW 337 -12,1 C -12,6 C 5,0 km/h (1 Bft)
29.12.2014 00:25 -9,5 C 81 % 1026,0 hPa 0,0 l/m 4,2 km/h (1 Bft) N-NW 337 -12,1 C -12,5 C 5,0 km/h (1 Bft)
29.12.2014 00:30 -9,6 C 81 % 1026,0 hPa 0,0 l/m 3,2 km/h (1 Bft) NW 315 -12,2 C -11,8 C 4,2 km/h (1 Bft)
29.12.2014 00:35 -9,6 C 81 % 1026,0 hPa 0,0 l/m 2,9 km/h (1 Bft) W 270 -12,2 C -11,6 C 5,0 km/h (1 Bft)
29.12.2014 00:40 -9,7 C 81 % 1026,0 hPa 0,0 l/m 3,1 km/h (1 Bft) W-NW 292 -12,3 C -11,8 C 3,5 km/h (1 Bft)
29.12.2014 00:45 -9,7 C 81 % 1026,0 hPa 0,0 l/m 3,1 km/h (1 Bft) NW 315 -12,3 C -11,9 C 4,0 km/h (1 Bft)
29.12.2014 00:50 -9,8 C 81 % 1026,0 hPa 0,0 l/m 1,4 km/h (1 Bft) W 270 -12,4 C -10,4 C 0,0 km/h (0 Bft)
29.12.2014 00:55 -9,8 C 81 % 1026,0 hPa 0,0 l/m 0,5 km/h (0 Bft) W 270 -12,4 C -10,4 C 0,0 km/h (0 Bft)
29.12.2014 01:00 -9,8 C 81 % 1025,9 hPa 0,0 l/m 0,3 km/h (0 Bft) W-NW 292 -12,4 C -10,4 C 1,6 km/h (1 Bft)
29.12.2014 01:05 -9,8 C 81 % 1025,9 hPa 0,0 l/m 0,5 km/h (0 Bft) NW 315 -12,4 C -10,4 C 1,6 km/h (1 Bft)
29.12.2014 01:10 -9,8 C 82 % 1025,9 hPa 0,0 l/m 0,3 km/h (0 Bft) NW 315 -12,3 C -10,6 C 0,0 km/h (0 Bft)
29.12.2014 01:15 -9,9 C 82 % 1025,9 hPa 0,0 l/m 0,2 km/h (0 Bft) NW 315 -12,4 C -10,6 C 0,0 km/h (0 Bft)
29.12.2014 01:20 -10,2 C 82 % 1026,0 hPa 0,0 l/m 0,0 km/h (0 Bft) W 270 -12,7 C -10,8 C 0,0 km/h (0 Bft)
29.12.2014 01:25 -10,4 C 81 % 1026,0 hPa 0,0 l/m 0,0 km/h (0 Bft) W 270 -13,0 C -10,9 C 0,0 km/h (0 Bft)
29.12.2014 01:30 -10,6 C 81 % 1026,0 hPa 0,0 l/m 0,0 km/h (0 Bft) W 270 -13,2 C -11,2 C 0,0 km/h (0 Bft)
29.12.2014 01:35 -10,8 C 81 % 1026,0 hPa 0,0 l/m 0,0 km/h (0 Bft) W 270 -13,4 C -11,3 C 0,0 km/h (0 Bft)
29.12.2014 01:38 -11,2 C 81 % 1025,9 hPa 0,0 l/m 0,0 km/h (0 Bft) W 270 -13,8 C -11,6 C 0,0 km/h (0 Bft)
29.12.2014 01:40 -11,4 C 81 % 1025,9 hPa 0,0 l/m 0,0 km/h (0 Bft) W 270 -14,0 C -11,8 C 0,0 km/h (0 Bft)
29.12.2014 01:45 -11,6 C 80 % 1025,9 hPa 0,0 l/m 0,0 km/h (0 Bft) W 270 -14,3 C -12,1 C 0,0 km/h (0 Bft)
29.12.2014 01:50 -11,9 C 80 % 1025,9 hPa 0,0 l/m 0,0 km/h (0 Bft) W-SW 247 -14,6 C -12,3 C 0,0 km/h (0 Bft)
29.12.2014 01:55 -12,0 C 80 % 1025,9 hPa 0,0 l/m 0,3 km/h (0 Bft) SW 225 -14,7 C -12,7 C 1,6 km/h (1 Bft)
29.12.2014 02:00 -12,2 C 80 % 1025,9 hPa 0,0 l/m 0,3 km/h (0 Bft) S 180 -14,9 C -12,8 C 0,0 km/h (0 Bft)
29.12.2014 02:05 -12,1 C 80 % 1025,9 hPa 0,0 l/m 1,0 km/h (0 Bft) S 180 -14,8 C -12,9 C 2,3 km/h (1 Bft)
29.12.2014 02:10 -12,1 C 80 % 1025,9 hPa 0,0 l/m 1,8 km/h (1 Bft) S-SW 202 -14,8 C -12,9 C 4,7 km/h (1 Bft)
29.12.2014 02:15 -12,4 C 80 % 1026,1 hPa 0,0 l/m 1,9 km/h (1 Bft) S 180 -15,1 C -13,4 C 2,4 km/h (1 Bft)
29.12.2014 02:20 -12,6 C 80 % 1026,1 hPa 0,0 l/m 1,6 km/h (1 Bft) S 180 -15,3 C -13,2 C 1,8 km/h (1 Bft)
29.12.2014 02:25 -12,6 C 80 % 1026,1 hPa 0,0 l/m 1,4 km/h (1 Bft) S 180 -15,3 C -13,3 C 1,6 km/h (1 Bft)
29.12.2014 02:30 -12,9 C 79 % 1026,1 hPa 0,0 l/m 0,6 km/h (0 Bft) S-SO 157 -15,8 C -13,5 C 0,0 km/h (0 Bft)
29.12.2014 02:35 -13,3 C 79 % 1026,4 hPa 0,0 l/m 0,2 km/h (0 Bft) S 180 -16,1 C -13,7 C 0,0 km/h (0 Bft)
29.12.2014 02:40 -13,4 C 79 % 1026,4 hPa 0,0 l/m 0,0 km/h (0 Bft) S 180 -16,2 C -13,8 C 0,0 km/h (0 Bft)
29.12.2014 02:45 -13,4 C 79 % 1026,4 hPa 0,0 l/m 0,0 km/h (0 Bft) S 180 -16,2 C -13,8 C 0,0 km/h (0 Bft)
29.12.2014 02:50 -13,2 C 79 % 1026,4 hPa 0,0 l/m 0,8 km/h (0 Bft) S 180 -16,0 C -14,0 C 2,1 km/h (1 Bft)
29.12.2014 02:55 -13,8 C 79 % 1026,4 hPa 0,0 l/m 0,8 km/h (0 Bft) S-SO 157 -16,6 C -14,2 C 0,0 km/h (0 Bft)
29.12.2014 03:00 -14,3 C 78 % 1026,5 hPa 0,0 l/m 0,0 km/h (0 Bft) S-SO 157 -17,3 C -14,7 C 0,0 km/h (0 Bft)
29.12.2014 03:05 -14,5 C 78 % 1026,5 hPa 0,0 l/m 0,0 km/h (0 Bft) S-SO 157 -17,5 C -15,0 C 0,0 km/h (0 Bft)
29.12.2014 03:10 -13,7 C 78 % 1026,5 hPa 0,0 l/m 0,3 km/h (0 Bft) S 180 -16,7 C -14,7 C 3,5 km/h (1 Bft)
29.12.2014 03:15 -13,9 C 78 % 1026,5 hPa 0,0 l/m 0,3 km/h (0 Bft) S-SO 157 -16,9 C -14,5 C 0,0 km/h (0 Bft)
29.12.2014 03:20 -14,4 C 78 % 1026,6 hPa 0,0 l/m 0,2 km/h (0 Bft) SO 135 -17,4 C -15,0 C 0,0 km/h (0 Bft)
29.12.2014 03:25 -14,3 C 78 % 1026,6 hPa 0,0 l/m 0,0 km/h (0 Bft) S-SO 157 -17,3 C -15,2 C 0,0 km/h (0 Bft)
29.12.2014 03:30 -15,2 C 77 % 1026,6 hPa 0,0 l/m 0,0 km/h (0 Bft) S 180 -18,3 C -15,8 C 0,0 km/h (0 Bft)
29.12.2014 03:35 -15,6 C 77 % 1026,6 hPa 0,0 l/m 0,0 km/h (0 Bft) S 180 -18,7 C -16,2 C 0,0 km/h (0 Bft)
29.12.2014 03:40 -15,6 C 77 % 1026,7 hPa 0,0 l/m 0,0 km/h (0 Bft) SO 135 -18,7 C -16,6 C 0,0 km/h (0 Bft)
29.12.2014 03:45 -16,5 C 76 % 1026,7 hPa 0,0 l/m 0,0 km/h (0 Bft) SO 135 -19,7 C -16,8 C 0,0 km/h (0 Bft)
29.12.2014 03:50 -16,0 C 76 % 1026,7 hPa 0,0 l/m 0,0 km/h (0 Bft) SO 135 -19,2 C -16,8 C 0,0 km/h (0 Bft)
29.12.2014 03:55 -15,8 C 76 % 1026,7 hPa 0,0 l/m 0,0 km/h (0 Bft) SO 135 -19,0 C -17,0 C 0,0 km/h (0 Bft)
29.12.2014 04:00 -16,0 C 76 % 1026,7 hPa 0,0 l/m 0,0 km/h (0 Bft) SO 135 -19,2 C -17,0 C 1,6 km/h (1 Bft)
29.12.2014 04:05 -15,8 C 76 % 1026,7 hPa 0,0 l/m 0,2 km/h (0 Bft) W-SW 247 -19,0 C -17,0 C 0,0 km/h (0 Bft)
29.12.2014 04:10 -16,3 C 76 % 1026,7 hPa 0,0 l/m 0,5 km/h (0 Bft) S-SO 157 -19,5 C -17,2 C 0,0 km/h (0 Bft)
29.12.2014 04:15 -16,6 C 76 % 1026,7 hPa 0,0 l/m 0,2 km/h (0 Bft) S-SO 157 -19,8 C -17,6 C 0,0 km/h (0 Bft)
29.12.2014 04:20 -16,7 C 75 % 1026,9 hPa 0,0 l/m 0,3 km/h (0 Bft) S-SO 157 -20,1 C -17,6 C 0,0 km/h (0 Bft)
29.12.2014 04:25 -16,7 C 75 % 1026,9 hPa 0,0 l/m 0,3 km/h (0 Bft) S-SO 157 -20,1 C -17,8 C 0,0 km/h (0 Bft)
29.12.2014 04:30 -16,7 C 75 % 1026,9 hPa 0,0 l/m 0,0 km/h (0 Bft) S-SO 157 -20,1 C -17,8 C 0,0 km/h (0 Bft)
29.12.2014 04:35 -16,6 C 76 % 1026,9 hPa 0,0 l/m 0,0 km/h (0 Bft) S 180 -19,8 C -17,8 C 0,0 km/h (0 Bft)
29.12.2014 04:40 -16,9 C 75 % 1026,8 hPa 0,0 l/m 0,5 km/h (0 Bft) SW 225 -20,3 C -17,4 C 0,0 km/h (0 Bft)
29.12.2014 04:45 -17,3 C 75 % 1026,8 hPa 0,0 l/m 0,6 km/h (0 Bft) SW 225 -20,6 C -17,4 C 0,0 km/h (0 Bft)
29.12.2014 04:50 -17,7 C 75 % 1026,8 hPa 0,0 l/m 0,3 km/h (0 Bft) S 180 -21,0 C -18,0 C 2,1 km/h (1 Bft)
29.12.2014 04:55 -17,4 C 75 % 1026,8 hPa 0,0 l/m 0,3 km/h (0 Bft) S-SO 157 -20,7 C -18,0 C 0,0 km/h (0 Bft)
29.12.2014 05:00 -17,8 C 75 % 1027,0 hPa 0,0 l/m 0,2 km/h (0 Bft) S 180 -21,1 C -18,2 C 0,0 km/h (0 Bft)
29.12.2014 05:05 -17,3 C 75 % 1027,0 hPa 0,0 l/m 0,2 km/h (0 Bft) W-SW 247 -20,6 C -18,2 C 3,1 km/h (1 Bft)
29.12.2014 05:10 -14,3 C 77 % 1027,0 hPa 0,0 l/m 2,7 km/h (1 Bft) S 180 -17,4 C -18,4 C 10,0 km/h (2 Bft)
29.12.2014 05:15 -13,8 C 78 % 1027,0 hPa 0,0 l/m 4,7 km/h (1 Bft) S-SW 202 -16,8 C -18,6 C 8,4 km/h (2 Bft)
29.12.2014 05:20 -15,8 C 78 % 1026,8 hPa 0,0 l/m 4,2 km/h (1 Bft) S 180 -18,7 C -17,7 C 10,6 km/h (2 Bft)
29.12.2014 05:25 -14,3 C 78 % 1026,8 hPa 0,0 l/m 3,1 km/h (1 Bft) SW 225 -17,3 C -16,9 C 4,2 km/h (1 Bft)
29.12.2014 05:30 -13,7 C 79 % 1026,8 hPa 0,0 l/m 3,9 km/h (1 Bft) S 180 -16,5 C -17,1 C 3,9 km/h (1 Bft)
29.12.2014 05:33 -13,9 C 79 % 1026,8 hPa 0,0 l/m 3,7 km/h (1 Bft) SW 225 -16,7 C -16,7 C 2,6 km/h (1 Bft)
29.12.2014 05:35 -14,4 C 79 % 1026,9 hPa 0,0 l/m 2,1 km/h (1 Bft) S 180 -17,2 C -15,2 C 0,0 km/h (0 Bft)
29.12.2014 05:40 -14,5 C 79 % 1026,9 hPa 0,0 l/m 1,1 km/h (1 Bft) S 180 -17,3 C -14,8 C 4,3 km/h (1 Bft)
29.12.2014 05:45 -14,0 C 79 % 1026,9 hPa 0,0 l/m 2,4 km/h (1 Bft) S 180 -16,8 C -15,9 C 4,3 km/h (1 Bft)
29.12.2014 05:50 -13,9 C 79 % 1026,9 hPa 0,0 l/m 4,0 km/h (1 Bft) S 180 -16,7 C -17,3 C 7,7 km/h (2 Bft)
29.12.2014 05:55 -13,6 C 79 % 1026,6 hPa 0,0 l/m 5,8 km/h (2 Bft) S 180 -16,4 C -17,9 C 9,5 km/h (2 Bft)
29.12.2014 06:00 -13,5 C 79 % 1026,6 hPa 0,0 l/m 6,3 km/h (2 Bft) SW 225 -16,3 C -17,9 C 4,2 km/h (1 Bft)
29.12.2014 06:06 -13,4 C 79 % 1026,6 hPa 0,0 l/m 5,8 km/h (2 Bft) SW 225 -16,2 C -17,7 C 5,3 km/h (1 Bft)
29.12.2014 06:07 -13,4 C 79 % 1026,6 hPa 0,0 l/m 5,8 km/h (2 Bft) N 0 -16,2 C -17,7 C 5,3 km/h (1 Bft)
29.12.2014 06:10 -13,6 C 79 % 1026,6 hPa 0,0 l/m 5,0 km/h (1 Bft) S-SW 202 -16,4 C -17,2 C 8,0 km/h (2 Bft)
29.12.2014 06:15 -13,4 C 79 % 1026,7 hPa 0,0 l/m 3,4 km/h (1 Bft) S-SW 202 -16,2 C -16,3 C 4,2 km/h (1 Bft)
29.12.2014 06:20 -13,5 C 79 % 1026,7 hPa 0,0 l/m 2,9 km/h (1 Bft) S-SO 157 -16,3 C -15,8 C 0,0 km/h (0 Bft)
29.12.2014 06:25 -14,2 C 79 % 1026,7 hPa 0,0 l/m 1,4 km/h (1 Bft) S 180 -17,0 C -14,6 C 1,6 km/h (1 Bft)
29.12.2014 06:30 -14,4 C 79 % 1026,7 hPa 0,0 l/m 0,5 km/h (0 Bft) S-SO 157 -17,2 C -14,8 C 0,0 km/h (0 Bft)
29.12.2014 06:35 -14,1 C 78 % 1026,7 hPa 0,0 l/m 1,3 km/h (1 Bft) S-SO 157 -17,1 C -15,0 C 3,2 km/h (1 Bft)
29.12.2014 06:40 -14,0 C 79 % 1026,7 hPa 0,0 l/m 2,1 km/h (1 Bft) S 180 -16,8 C -15,5 C 1,9 km/h (1 Bft)
29.12.2014 06:45 -14,0 C 79 % 1026,7 hPa 0,0 l/m 2,1 km/h (1 Bft) S 180 -16,8 C -15,5 C 1,9 km/h (1 Bft)
29.12.2014 06:50 -14,3 C 78 % 1026,7 hPa 0,0 l/m 3,7 km/h (1 Bft) S-SW 202 -17,3 C -17,6 C 7,9 km/h (2 Bft)
29.12.2014 06:55 -14,4 C 78 % 1026,7 hPa 0,0 l/m 3,5 km/h (1 Bft) S 180 -17,4 C -17,1 C 3,9 km/h (1 Bft)
29.12.2014 07:00 -15,8 C 77 % 1026,8 hPa 0,0 l/m 1,9 km/h (1 Bft) S-SO 157 -18,9 C -16,1 C 0,0 km/h (0 Bft)
29.12.2014 07:05 -16,2 C 77 % 1026,8 hPa 0,0 l/m 0,5 km/h (0 Bft) S-SO 157 -19,3 C -16,6 C 0,0 km/h (0 Bft)
29.12.2014 07:10 -15,9 C 77 % 1026,8 hPa 0,0 l/m 0,3 km/h (0 Bft) S-SO 157 -19,0 C -17,2 C 0,0 km/h (0 Bft)
29.12.2014 07:15 -15,7 C 77 % 1026,8 hPa 0,0 l/m 1,1 km/h (1 Bft) SO 135 -18,8 C -16,8 C 4,5 km/h (1 Bft)
29.12.2014 07:20 -14,4 C 78 % 1026,4 hPa 0,0 l/m 2,9 km/h (1 Bft) W-SW 247 -17,4 C -17,4 C 3,7 km/h (1 Bft)
29.12.2014 07:25 -14,2 C 78 % 1026,4 hPa 0,0 l/m 3,4 km/h (1 Bft) S 180 -17,2 C -16,9 C 0,0 km/h (0 Bft)
29.12.2014 07:30 -14,7 C 78 % 1026,4 hPa 0,0 l/m 1,8 km/h (1 Bft) S 180 -17,7 C -14,8 C 2,1 km/h (1 Bft)
29.12.2014 07:35 -14,6 C 78 % 1026,4 hPa 0,0 l/m 1,3 km/h (1 Bft) W-SW 247 -17,6 C -14,5 C 4,8 km/h (1 Bft)
29.12.2014 07:40 -13,9 C 78 % 1026,2 hPa 0,0 l/m 2,3 km/h (1 Bft) S-SW 202 -16,9 C -14,9 C 5,1 km/h (1 Bft)
29.12.2014 07:45 -12,7 C 79 % 1026,2 hPa 0,0 l/m 3,7 km/h (1 Bft) SW 225 -15,6 C -15,9 C 6,9 km/h (2 Bft)
29.12.2014 07:50 -12,7 C 79 % 1026,2 hPa 0,0 l/m 4,2 km/h (1 Bft) S-SO 157 -15,6 C -15,6 C 4,2 km/h (1 Bft)
29.12.2014 07:55 -12,5 C 80 % 1026,2 hPa 0,0 l/m 3,9 km/h (1 Bft) S-SW 202 -15,2 C -15,2 C 5,3 km/h (1 Bft)
29.12.2014 08:00 -13,0 C 79 % 1025,8 hPa 0,0 l/m 3,2 km/h (1 Bft) S-SO 157 -15,9 C -14,7 C 1,9 km/h (1 Bft)
29.12.2014 08:05 -13,5 C 79 % 1025,8 hPa 0,0 l/m 2,3 km/h (1 Bft) SW 225 -16,3 C -13,9 C 0,0 km/h (0 Bft)
29.12.2014 08:10 -14,2 C 79 % 1025,8 hPa 0,0 l/m 0,5 km/h (0 Bft) S-SW 202 -17,0 C -13,7 C 0,0 km/h (0 Bft)
29.12.2014 08:15 -14,3 C 78 % 1025,8 hPa 0,0 l/m 0,0 km/h (0 Bft) S-SW 202 -17,3 C -14,0 C 0,0 km/h (0 Bft)
29.12.2014 08:20 -14,4 C 78 % 1025,9 hPa 0,0 l/m 0,0 km/h (0 Bft) S 180 -17,4 C -14,3 C 0,0 km/h (0 Bft)
29.12.2014 08:25 -14,5 C 78 % 1025,9 hPa 0,0 l/m 0,0 km/h (0 Bft) S 180 -17,5 C -14,5 C 0,0 km/h (0 Bft)
29.12.2014 08:30 -14,7 C 78 % 1025,9 hPa 0,0 l/m 0,0 km/h (0 Bft) W-SW 247 -17,7 C -14,6 C 0,0 km/h (0 Bft)
29.12.2014 08:35 -14,4 C 78 % 1025,9 hPa 0,0 l/m 0,0 km/h (0 Bft) W-SW 247 -17,4 C -14,6 C 0,0 km/h (0 Bft)
29.12.2014 08:40 -14,0 C 78 % 1025,8 hPa 0,0 l/m 0,3 km/h (0 Bft) S 180 -17,0 C -14,5 C 3,9 km/h (1 Bft)
29.12.2014 08:45 -13,6 C 78 % 1025,8 hPa 0,0 l/m 0,5 km/h (0 Bft) S-SO 157 -16,6 C -14,2 C 0,0 km/h (0 Bft)
29.12.2014 08:50 -13,6 C 78 % 1025,8 hPa 0,0 l/m 0,5 km/h (0 Bft) S-SO 157 -16,6 C -14,0 C 0,0 km/h (0 Bft)
29.12.2014 08:55 -13,3 C 78 % 1025,8 hPa 0,0 l/m 0,3 km/h (0 Bft) W-SW 247 -16,3 C -13,7 C 1,8 km/h (1 Bft)
29.12.2014 09:00 -12,8 C 78 % 1025,4 hPa 0,0 l/m 0,6 km/h (0 Bft) W-SW 247 -15,8 C -13,2 C 2,4 km/h (1 Bft)
29.12.2014 09:05 -12,5 C 78 % 1025,4 hPa 0,0 l/m 0,8 km/h (0 Bft) SW 225 -15,5 C -12,7 C 4,8 km/h (1 Bft)
29.12.2014 09:10 -12,0 C 79 % 1025,4 hPa 0,0 l/m 1,3 km/h (1 Bft) O 90 -14,9 C -12,1 C 1,6 km/h (1 Bft)
29.12.2014 09:15 -10,8 C 80 % 1025,4 hPa 0,0 l/m 2,4 km/h (1 Bft) S-SW 202 -13,6 C -12,3 C 5,0 km/h (1 Bft)
29.12.2014 09:20 -9,6 C 82 % 1025,4 hPa 0,0 l/m 5,1 km/h (1 Bft) W-SW 247 -12,1 C -13,3 C 13,4 km/h (3 Bft)
29.12.2014 09:25 -9,3 C 82 % 1025,4 hPa 0,0 l/m 5,3 km/h (1 Bft) SW 225 -11,8 C -13,0 C 3,9 km/h (1 Bft)
29.12.2014 09:30 -9,6 C 82 % 1025,4 hPa 0,0 l/m 4,0 km/h (1 Bft) W-NW 292 -12,1 C -11,7 C 7,6 km/h (2 Bft)
29.12.2014 09:33 -9,8 C 82 % 1025,4 hPa 0,0 l/m 4,7 km/h (1 Bft) W-SW 247 -12,3 C -12,4 C 7,6 km/h (2 Bft)
29.12.2014 09:35 -9,0 C 82 % 1025,4 hPa 0,0 l/m 4,8 km/h (1 Bft) W 270 -11,5 C -12,5 C 4,3 km/h (1 Bft)
29.12.2014 09:40 -9,3 C 82 % 1025,4 hPa 0,0 l/m 4,5 km/h (1 Bft) W 270 -11,8 C -12,1 C 5,3 km/h (1 Bft)
29.12.2014 09:45 -8,5 C 83 % 1025,4 hPa 0,0 l/m 4,3 km/h (1 Bft) W-SW 247 -10,9 C -11,6 C 6,1 km/h (2 Bft)
29.12.2014 09:50 -8,2 C 83 % 1025,4 hPa 0,0 l/m 4,8 km/h (1 Bft) SW 225 -10,6 C -11,6 C 6,8 km/h (2 Bft)
29.12.2014 09:55 -7,7 C 83 % 1024,9 hPa 0,0 l/m 6,1 km/h (2 Bft) W 270 -10,1 C -11,9 C 3,7 km/h (1 Bft)
29.12.2014 10:00 -7,6 C 83 % 1024,9 hPa 0,0 l/m 5,6 km/h (1 Bft) W-NW 292 -10,0 C -11,3 C 3,7 km/h (1 Bft)
29.12.2014 10:05 -7,5 C 83 % 1024,9 hPa 0,0 l/m 3,5 km/h (1 Bft) W-NW 292 -9,9 C -9,4 C 4,8 km/h (1 Bft)
29.12.2014 10:10 -7,5 C 83 % 1024,9 hPa 0,0 l/m 3,2 km/h (1 Bft) NW 315 -9,9 C -9,1 C 4,7 km/h (1 Bft)
29.12.2014 10:15 -7,0 C 83 % 1024,9 hPa 0,0 l/m 4,0 km/h (1 Bft) S-SW 202 -9,4 C -9,6 C 5,3 km/h (1 Bft)
29.12.2014 10:20 -6,5 C 83 % 1024,9 hPa 0,0 l/m 4,5 km/h (1 Bft) W-SW 247 -8,9 C -9,7 C 4,5 km/h (1 Bft)
29.12.2014 10:25 -6,2 C 83 % 1024,9 hPa 0,0 l/m 4,8 km/h (1 Bft) W 270 -8,6 C -9,6 C 8,2 km/h (2 Bft)
29.12.2014 10:30 -6,2 C 83 % 1024,9 hPa 0,0 l/m 4,8 km/h (1 Bft) W 270 -8,6 C -9,6 C 8,2 km/h (2 Bft)
29.12.2014 10:35 -6,0 C 83 % 1024,9 hPa 0,0 l/m 4,8 km/h (1 Bft) W-SW 247 -8,4 C -9,4 C 7,1 km/h (2 Bft)
29.12.2014 10:40 -5,8 C 82 % 1025,0 hPa 0,0 l/m 5,8 km/h (2 Bft) W-SW 247 -8,4 C -9,7 C 8,0 km/h (2 Bft)
29.12.2014 10:45 -5,8 C 81 % 1025,0 hPa 0,0 l/m 6,3 km/h (2 Bft) W-SW 247 -8,5 C -9,9 C 7,6 km/h (2 Bft)
29.12.2014 10:50 -5,7 C 79 % 1025,0 hPa 0,0 l/m 6,1 km/h (2 Bft) W 270 -8,7 C -9,6 C 13,7 km/h (3 Bft)
29.12.2014 10:55 -5,7 C 76 % 1025,0 hPa 0,0 l/m 6,4 km/h (2 Bft) SW 225 -9,2 C -9,4 C 10,0 km/h (2 Bft)
29.12.2014 11:00 -5,7 C 75 % 1025,0 hPa 0,0 l/m 8,5 km/h (2 Bft) W-SW 247 -9,4 C -13,1 C 16,4 km/h (3 Bft)
29.12.2014 11:05 -5,7 C 75 % 1025,0 hPa 0,0 l/m 9,0 km/h (2 Bft) S-SO 157 -9,4 C -13,5 C 9,8 km/h (2 Bft)
29.12.2014 11:10 -5,4 C 75 % 1025,0 hPa 0,0 l/m 8,5 km/h (2 Bft) SW 225 -9,1 C -12,5 C 11,4 km/h (2 Bft)
29.12.2014 11:15 -5,2 C 70 % 1025,0 hPa 0,0 l/m 10,0 km/h (2 Bft) W-NW 292 -9,8 C -14,5 C 15,6 km/h (3 Bft)
29.12.2014 11:20 -5,3 C 70 % 1025,1 hPa 0,0 l/m 9,8 km/h (2 Bft) W 270 -9,9 C -13,8 C 19,5 km/h (3 Bft)
29.12.2014 11:25 -5,6 C 68 % 1025,1 hPa 0,0 l/m 10,1 km/h (2 Bft) W 270 -10,5 C -14,4 C 18,7 km/h (3 Bft)
29.12.2014 11:30 -5,6 C 69 % 1025,1 hPa 0,0 l/m 11,6 km/h (2 Bft) W-SW 247 -10,4 C -16,7 C 21,2 km/h (4 Bft)
29.12.2014 11:35 -5,6 C 70 % 1025,1 hPa 0,0 l/m 10,9 km/h (2 Bft) S-SW 202 -10,2 C -15,8 C 14,8 km/h (3 Bft)
29.12.2014 11:40 -5,7 C 73 % 1025,1 hPa 0,0 l/m 9,8 km/h (2 Bft) W-SW 247 -9,7 C -14,4 C 12,4 km/h (3 Bft)
29.12.2014 11:45 -5,9 C 74 % 1025,1 hPa 0,0 l/m 10,9 km/h (2 Bft) W 270 -9,8 C -16,2 C 11,4 km/h (2 Bft)
29.12.2014 11:50 -5,9 C 75 % 1025,1 hPa 0,0 l/m 10,9 km/h (2 Bft) W 270 -9,6 C -16,3 C 24,8 km/h (4 Bft)
29.12.2014 11:55 -5,7 C 76 % 1025,1 hPa 0,0 l/m 11,3 km/h (2 Bft) W-SW 247 -9,2 C -16,9 C 11,6 km/h (2 Bft)
29.12.2014 12:00 -5,6 C 77 % 1024,9 hPa 0,0 l/m 11,6 km/h (2 Bft) W 270 -9,0 C -17,0 C 13,2 km/h (3 Bft)
29.12.2014 12:05 -5,6 C 78 % 1024,9 hPa 0,0 l/m 10,9 km/h (2 Bft) W 270 -8,8 C -16,0 C 16,3 km/h (3 Bft)
29.12.2014 12:10 -5,5 C 78 % 1024,9 hPa 0,0 l/m 10,1 km/h (2 Bft) W 270 -8,7 C -14,8 C 7,4 km/h (2 Bft)
29.12.2014 12:15 -5,5 C 79 % 1024,9 hPa 0,0 l/m 10,3 km/h (2 Bft) W 270 -8,5 C -15,2 C 12,4 km/h (3 Bft)
29.12.2014 12:20 -5,3 C 80 % 1025,0 hPa 0,0 l/m 10,0 km/h (2 Bft) W 270 -8,2 C -14,6 C 9,2 km/h (2 Bft)
29.12.2014 12:25 -5,3 C 80 % 1025,0 hPa 0,0 l/m 10,8 km/h (2 Bft) SW 225 -8,2 C -15,7 C 13,4 km/h (3 Bft)
29.12.2014 12:30 -5,3 C 80 % 1025,0 hPa 0,0 l/m 10,1 km/h (2 Bft) NW 315 -8,2 C -14,7 C 7,6 km/h (2 Bft)
29.12.2014 12:33 -5,4 C 80 % 1025,0 hPa 0,0 l/m 8,9 km/h (2 Bft) W 270 -8,3 C -12,8 C 7,4 km/h (2 Bft)
29.12.2014 12:35 -5,4 C 80 % 1024,9 hPa 0,0 l/m 7,7 km/h (2 Bft) W-SW 247 -8,3 C -11,0 C 10,1 km/h (2 Bft)
29.12.2014 12:40 -5,5 C 80 % 1024,9 hPa 0,0 l/m 8,5 km/h (2 Bft) W-SW 247 -8,4 C -12,2 C 18,0 km/h (3 Bft)
29.12.2014 12:45 -5,5 C 80 % 1024,9 hPa 0,0 l/m 10,3 km/h (2 Bft) W-NW 292 -8,4 C -15,0 C 14,6 km/h (3 Bft)
29.12.2014 12:50 -5,6 C 80 % 1024,9 hPa 0,0 l/m 10,8 km/h (2 Bft) W-SW 247 -8,5 C -15,8 C 13,5 km/h (3 Bft)
29.12.2014 12:55 -5,7 C 80 % 1024,7 hPa 0,0 l/m 11,1 km/h (2 Bft) W-SW 247 -8,6 C -16,5 C 12,4 km/h (3 Bft)
29.12.2014 13:00 -5,7 C 80 % 1024,7 hPa 0,0 l/m 11,4 km/h (2 Bft) W 270 -8,6 C -17,0 C 9,2 km/h (2 Bft)
29.12.2014 13:05 -5,7 C 81 % 1024,7 hPa 0,0 l/m 11,4 km/h (2 Bft) NW 315 -8,4 C -17,2 C 14,5 km/h (3 Bft)
29.12.2014 13:10 -5,7 C 81 % 1024,7 hPa 0,0 l/m 10,8 km/h (2 Bft) W-SW 247 -8,4 C -16,1 C 16,3 km/h (3 Bft)
29.12.2014 13:15 -5,8 C 81 % 1024,8 hPa 0,0 l/m 10,0 km/h (2 Bft) W-SW 247 -8,5 C -15,2 C 14,5 km/h (3 Bft)
29.12.2014 13:20 -5,8 C 81 % 1024,8 hPa 0,0 l/m 9,7 km/h (2 Bft) W 270 -8,5 C -14,7 C 10,5 km/h (2 Bft)
29.12.2014 13:25 -5,8 C 81 % 1024,8 hPa 0,0 l/m 9,7 km/h (2 Bft) W 270 -8,5 C -14,7 C 10,5 km/h (2 Bft)
29.12.2014 13:30 -5,8 C 81 % 1024,8 hPa 0,0 l/m 9,2 km/h (2 Bft) W-NW 292 -8,5 C -13,9 C 13,4 km/h (3 Bft)
29.12.2014 13:35 -5,8 C 82 % 1024,8 hPa 0,0 l/m 9,7 km/h (2 Bft) W-NW 292 -8,4 C -14,7 C 13,4 km/h (3 Bft)
29.12.2014 13:40 -5,8 C 82 % 1024,8 hPa 0,0 l/m 9,8 km/h (2 Bft) W-SW 247 -8,4 C -15,0 C 17,1 km/h (3 Bft)
29.12.2014 13:45 -5,8 C 82 % 1024,8 hPa 0,0 l/m 9,7 km/h (2 Bft) W-SW 247 -8,4 C -14,7 C 12,6 km/h (3 Bft)
29.12.2014 13:50 -5,8 C 83 % 1024,8 hPa 0,0 l/m 10,3 km/h (2 Bft) W-NW 292 -8,2 C -15,6 C 12,4 km/h (3 Bft)
29.12.2014 13:55 -5,7 C 83 % 1024,8 hPa 0,0 l/m 10,9 km/h (2 Bft) W 270 -8,1 C -16,5 C 16,9 km/h (3 Bft)
29.12.2014 14:00 -5,5 C 82 % 1025,1 hPa 0,0 l/m 12,6 km/h (3 Bft) N-NW 337 -8,1 C -18,5 C 13,0 km/h (3 Bft)
29.12.2014 14:05 -5,5 C 82 % 1025,1 hPa 0,0 l/m 12,6 km/h (3 Bft) W 270 -8,1 C -18,1 C 10,1 km/h (2 Bft)
29.12.2014 14:10 -5,5 C 82 % 1025,1 hPa 0,0 l/m 12,4 km/h (3 Bft) W-SW 247 -8,1 C -17,9 C 15,9 km/h (3 Bft)
29.12.2014 14:15 -5,4 C 82 % 1025,1 hPa 0,0 l/m 12,6 km/h (3 Bft) W-SW 247 -8,0 C -18,1 C 11,4 km/h (2 Bft)
29.12.2014 14:20 -5,4 C 81 % 1025,2 hPa 0,0 l/m 12,4 km/h (3 Bft) W-SW 247 -8,1 C -17,8 C 24,3 km/h (4 Bft)
29.12.2014 14:25 -5,4 C 81 % 1025,2 hPa 0,0 l/m 12,9 km/h (3 Bft) NW 315 -8,1 C -18,5 C 10,8 km/h (2 Bft)
29.12.2014 14:30 -5,3 C 81 % 1025,2 hPa 0,0 l/m 12,7 km/h (3 Bft) W-SW 247 -8,0 C -18,1 C 16,9 km/h (3 Bft)
29.12.2014 14:35 -5,3 C 81 % 1025,2 hPa 0,0 l/m 11,3 km/h (2 Bft) W-NW 292 -8,0 C -16,3 C 13,8 km/h (3 Bft)
29.12.2014 14:40 -5,4 C 81 % 1025,3 hPa 0,0 l/m 11,7 km/h (2 Bft) SW 225 -8,1 C -16,9 C 20,3 km/h (4 Bft)
29.12.2014 14:45 -5,3 C 80 % 1025,3 hPa 0,0 l/m 13,7 km/h (3 Bft) W 270 -8,2 C -19,5 C 20,3 km/h (4 Bft)
29.12.2014 14:50 -5,4 C 80 % 1025,3 hPa 0,0 l/m 14,8 km/h (3 Bft) W-SW 247 -8,3 C -20,6 C 12,6 km/h (3 Bft)
29.12.2014 14:55 -5,5 C 80 % 1025,3 hPa 0,0 l/m 14,3 km/h (3 Bft) W 270 -8,4 C -20,2 C 22,7 km/h (4 Bft)
29.12.2014 15:00 -5,5 C 81 % 1025,3 hPa 0,0 l/m 12,7 km/h (3 Bft) W-SW 247 -8,2 C -18,3 C 27,0 km/h (4 Bft)
29.12.2014 15:05 -5,5 C 81 % 1025,3 hPa 0,0 l/m 12,4 km/h (3 Bft) W-NW 292 -8,2 C -17,9 C 17,7 km/h (3 Bft)
29.12.2014 15:10 -5,5 C 82 % 1025,3 hPa 0,0 l/m 12,9 km/h (3 Bft) W 270 -8,1 C -18,7 C 21,9 km/h (4 Bft)
29.12.2014 15:15 -5,5 C 82 % 1025,3 hPa 0,0 l/m 13,7 km/h (3 Bft) W 270 -8,1 C -19,7 C 14,2 km/h (3 Bft)
29.12.2014 15:20 -5,6 C 82 % 1025,6 hPa 0,0 l/m 13,0 km/h (3 Bft) SW 225 -8,2 C -18,8 C 27,5 km/h (4 Bft)
29.12.2014 15:25 -5,6 C 82 % 1025,6 hPa 0,0 l/m 11,9 km/h (2 Bft) W-SW 247 -8,2 C -17,5 C 19,5 km/h (3 Bft)
29.12.2014 15:30 -5,6 C 83 % 1025,6 hPa 0,0 l/m 11,7 km/h (2 Bft) W-SW 247 -8,0 C -17,4 C 10,1 km/h (2 Bft)
29.12.2014 15:35 -5,5 C 83 % 1025,0 hPa 0,0 l/m 10,3 km/h (2 Bft) W-SW 247 -7,9 C -15,3 C 15,1 km/h (3 Bft)
29.12.2014 15:40 -5,5 C 83 % 1025,0 hPa 0,0 l/m 10,1 km/h (2 Bft) NW 315 -7,9 C -15,0 C 6,9 km/h (2 Bft)
29.12.2014 15:45 -5,5 C 83 % 1025,0 hPa 0,0 l/m 10,5 km/h (2 Bft) NW 315 -7,9 C -15,6 C 12,9 km/h (3 Bft)
29.12.2014 15:50 -5,4 C 83 % 1025,0 hPa 0,0 l/m 10,8 km/h (2 Bft) W-SW 247 -7,8 C -16,0 C 9,3 km/h (2 Bft)
29.12.2014 15:55 -5,4 C 83 % 1025,2 hPa 0,0 l/m 11,1 km/h (2 Bft) NW 315 -7,8 C -16,3 C 13,2 km/h (3 Bft)
29.12.2014 16:00 -5,4 C 83 % 1025,2 hPa 0,0 l/m 10,5 km/h (2 Bft) W-SW 247 -7,8 C -15,4 C 9,5 km/h (2 Bft)
29.12.2014 16:05 -5,4 C 83 % 1025,2 hPa 0,0 l/m 9,7 km/h (2 Bft) W 270 -7,8 C -14,3 C 10,0 km/h (2 Bft)
29.12.2014 16:10 -5,4 C 83 % 1025,2 hPa 0,0 l/m 9,7 km/h (2 Bft) W 270 -7,8 C -14,3 C 14,6 km/h (3 Bft)
29.12.2014 16:15 -5,5 C 84 % 1025,2 hPa 0,0 l/m 10,6 km/h (2 Bft) W-NW 292 -7,8 C -15,8 C 13,0 km/h (3 Bft)
29.12.2014 16:20 -5,5 C 84 % 1025,2 hPa 0,0 l/m 10,6 km/h (2 Bft) W-NW 292 -7,8 C -15,8 C 13,0 km/h (3 Bft)
29.12.2014 16:25 -5,5 C 84 % 1025,2 hPa 0,0 l/m 10,9 km/h (2 Bft) W-SW 247 -7,8 C -16,2 C 17,7 km/h (3 Bft)
29.12.2014 16:30 -5,5 C 84 % 1025,2 hPa 0,0 l/m 11,7 km/h (2 Bft) W-NW 292 -7,8 C -17,3 C 13,2 km/h (3 Bft)
29.12.2014 16:35 -5,5 C 85 % 1025,2 hPa 0,0 l/m 11,7 km/h (2 Bft) W-SW 247 -7,6 C -17,4 C 15,4 km/h (3 Bft)
29.12.2014 16:40 -5,6 C 85 % 1025,5 hPa 0,0 l/m 10,3 km/h (2 Bft) W 270 -7,7 C -15,5 C 13,4 km/h (3 Bft)
29.12.2014 16:45 -5,6 C 85 % 1025,5 hPa 0,0 l/m 10,9 km/h (2 Bft) W 270 -7,7 C -16,3 C 17,2 km/h (3 Bft)
29.12.2014 16:50 -5,6 C 85 % 1025,5 hPa 0,0 l/m 11,9 km/h (2 Bft) W-SW 247 -7,7 C -17,7 C 13,7 km/h (3 Bft)
29.12.2014 16:55 -5,6 C 86 % 1025,5 hPa 0,0 l/m 12,4 km/h (3 Bft) W 270 -7,6 C -18,3 C 13,7 km/h (3 Bft)
29.12.2014 17:00 -5,6 C 86 % 1025,9 hPa 0,0 l/m 12,1 km/h (2 Bft) SW 225 -7,6 C -17,9 C 12,6 km/h (3 Bft)
29.12.2014 17:05 -5,6 C 86 % 1025,9 hPa 0,0 l/m 11,6 km/h (2 Bft) W-NW 292 -7,6 C -17,4 C 11,4 km/h (2 Bft)
29.12.2014 17:10 -5,6 C 86 % 1025,9 hPa 0,0 l/m 11,3 km/h (2 Bft) W 270 -7,6 C -17,0 C 23,8 km/h (4 Bft)
29.12.2014 17:15 -5,6 C 85 % 1025,9 hPa 0,0 l/m 13,4 km/h (3 Bft) W 270 -7,7 C -19,7 C 22,9 km/h (4 Bft)
29.12.2014 17:20 -5,7 C 85 % 1025,9 hPa 0,0 l/m 14,5 km/h (3 Bft) W-SW 247 -7,8 C -20,9 C 12,6 km/h (3 Bft)
29.12.2014 17:25 -5,7 C 85 % 1025,9 hPa 0,0 l/m 12,2 km/h (2 Bft) W-SW 247 -7,8 C -18,2 C 20,3 km/h (4 Bft)
29.12.2014 17:30 -5,7 C 85 % 1025,9 hPa 0,0 l/m 13,7 km/h (3 Bft) W 270 -7,8 C -20,1 C 21,6 km/h (4 Bft)
29.12.2014 17:35 -5,7 C 85 % 1025,9 hPa 0,0 l/m 15,1 km/h (3 Bft) W 270 -7,8 C -21,6 C 15,1 km/h (3 Bft)
29.12.2014 17:40 -5,6 C 85 % 1026,1 hPa 0,0 l/m 14,2 km/h (3 Bft) W-SW 247 -7,7 C -20,6 C 13,0 km/h (3 Bft)
29.12.2014 17:45 -5,6 C 85 % 1026,1 hPa 0,0 l/m 13,7 km/h (3 Bft) W 270 -7,7 C -19,9 C 9,5 km/h (2 Bft)
29.12.2014 17:50 -5,6 C 85 % 1026,1 hPa 0,0 l/m 12,7 km/h (3 Bft) W 270 -7,7 C -18,8 C 9,8 km/h (2 Bft)
29.12.2014 17:55 -5,6 C 84 % 1026,1 hPa 0,0 l/m 11,7 km/h (2 Bft) W 270 -7,9 C -17,5 C 11,9 km/h (2 Bft)
29.12.2014 18:00 -5,6 C 84 % 1026,2 hPa 0,0 l/m 10,1 km/h (2 Bft) W 270 -7,9 C -15,4 C 16,1 km/h (3 Bft)
29.12.2014 18:05 -5,6 C 84 % 1026,2 hPa 0,0 l/m 10,8 km/h (2 Bft) W 270 -7,9 C -16,4 C 20,4 km/h (4 Bft)
29.12.2014 18:10 -5,6 C 84 % 1026,2 hPa 0,0 l/m 12,2 km/h (2 Bft) W-SW 247 -7,9 C -18,0 C 11,7 km/h (2 Bft)
29.12.2014 18:15 -5,6 C 84 % 1026,2 hPa 0,0 l/m 12,1 km/h (2 Bft) NW 315 -7,9 C -17,9 C 15,4 km/h (3 Bft)
29.12.2014 18:20 -5,6 C 84 % 1026,3 hPa 0,0 l/m 11,7 km/h (2 Bft) SW 225 -7,9 C -17,4 C 16,1 km/h (3 Bft)
29.12.2014 18:25 -5,6 C 84 % 1026,3 hPa 0,0 l/m 12,9 km/h (3 Bft) W 270 -7,9 C -18,9 C 14,0 km/h (3 Bft)
29.12.2014 18:28 -5,5 C 84 % 1026,3 hPa 0,0 l/m 12,7 km/h (3 Bft) W-NW 292 -7,8 C -18,7 C 13,4 km/h (3 Bft)
29.12.2014 18:30 -5,5 C 84 % 1026,3 hPa 0,0 l/m 12,6 km/h (3 Bft) W 270 -7,8 C -18,4 C 15,0 km/h (3 Bft)
29.12.2014 18:35 -5,5 C 84 % 1026,6 hPa 0,0 l/m 11,1 km/h (2 Bft) W-NW 292 -7,8 C -16,4 C 14,8 km/h (3 Bft)
29.12.2014 18:40 -5,6 C 84 % 1026,6 hPa 0,0 l/m 10,1 km/h (2 Bft) NW 315 -7,9 C -15,2 C 11,6 km/h (2 Bft)
29.12.2014 18:45 -5,6 C 84 % 1026,6 hPa 0,0 l/m 8,9 km/h (2 Bft) W 270 -7,9 C -13,4 C 7,1 km/h (2 Bft)
29.12.2014 18:50 -5,5 C 84 % 1026,6 hPa 0,0 l/m 9,2 km/h (2 Bft) W 270 -7,8 C -13,8 C 17,7 km/h (3 Bft)
29.12.2014 18:55 -5,5 C 84 % 1026,8 hPa 0,0 l/m 10,3 km/h (2 Bft) W 270 -7,8 C -15,5 C 13,5 km/h (3 Bft)
29.12.2014 19:00 -5,5 C 84 % 1026,8 hPa 0,0 l/m 11,3 km/h (2 Bft) SW 225 -7,8 C -16,6 C 12,4 km/h (3 Bft)
29.12.2014 19:05 -5,5 C 84 % 1026,8 hPa 0,0 l/m 11,6 km/h (2 Bft) W 270 -7,8 C -17,0 C 14,6 km/h (3 Bft)
29.12.2014 19:10 -5,6 C 84 % 1026,8 hPa 0,0 l/m 11,1 km/h (2 Bft) W 270 -7,9 C -16,4 C 10,0 km/h (2 Bft)
29.12.2014 19:15 -5,6 C 84 % 1026,8 hPa 0,0 l/m 11,3 km/h (2 Bft) W-SW 247 -7,9 C -16,9 C 12,7 km/h (3 Bft)
29.12.2014 19:20 -5,6 C 84 % 1026,8 hPa 0,0 l/m 11,3 km/h (2 Bft) W-SW 247 -7,9 C -16,9 C 12,7 km/h (3 Bft)
29.12.2014 19:25 -5,6 C 85 % 1026,8 hPa 0,0 l/m 11,7 km/h (2 Bft) W-SW 247 -7,7 C -17,4 C 17,4 km/h (3 Bft)
29.12.2014 19:30 -5,6 C 85 % 1026,8 hPa 0,0 l/m 11,3 km/h (2 Bft) W 270 -7,7 C -16,9 C 7,2 km/h (2 Bft)
29.12.2014 19:35 -5,6 C 85 % 1026,8 hPa 0,0 l/m 11,1 km/h (2 Bft) W 270 -7,7 C -16,5 C 13,5 km/h (3 Bft)
29.12.2014 19:40 -5,6 C 85 % 1027,0 hPa 0,0 l/m 9,8 km/h (2 Bft) W-SW 247 -7,7 C -14,7 C 12,2 km/h (2 Bft)
29.12.2014 19:45 -5,6 C 86 % 1027,0 hPa 0,0 l/m 10,1 km/h (2 Bft) W-SW 247 -7,6 C -15,4 C 13,8 km/h (3 Bft)
29.12.2014 19:50 -5,6 C 86 % 1027,0 hPa 0,0 l/m 9,5 km/h (2 Bft) W-SW 247 -7,6 C -14,4 C 12,6 km/h (3 Bft)
29.12.2014 19:55 -5,6 C 86 % 1027,0 hPa 0,0 l/m 9,7 km/h (2 Bft) W-SW 247 -7,6 C -14,7 C 15,6 km/h (3 Bft)
29.12.2014 20:00 -5,6 C 86 % 1027,1 hPa 0,0 l/m 9,2 km/h (2 Bft) NW 315 -7,6 C -13,9 C 6,6 km/h (2 Bft)
29.12.2014 20:05 -5,6 C 86 % 1027,1 hPa 0,0 l/m 8,5 km/h (2 Bft) W-NW 292 -7,6 C -12,9 C 15,9 km/h (3 Bft)
29.12.2014 20:10 -5,6 C 86 % 1027,1 hPa 0,0 l/m 8,2 km/h (2 Bft) W 270 -7,6 C -12,2 C 7,6 km/h (2 Bft)
29.12.2014 20:15 -5,6 C 86 % 1027,1 hPa 0,0 l/m 8,2 km/h (2 Bft) W 270 -7,6 C -12,2 C 11,7 km/h (2 Bft)
29.12.2014 20:20 -5,6 C 86 % 1027,5 hPa 0,0 l/m 7,4 km/h (2 Bft) NW 315 -7,6 C -10,9 C 8,2 km/h (2 Bft)
29.12.2014 20:25 -5,6 C 86 % 1027,5 hPa 0,0 l/m 8,2 km/h (2 Bft) W-SW 247 -7,6 C -12,4 C 11,3 km/h (2 Bft)
29.12.2014 20:30 -5,6 C 87 % 1027,5 hPa 0,0 l/m 10,9 km/h (2 Bft) W-SW 247 -7,4 C -16,3 C 16,1 km/h (3 Bft)
29.12.2014 20:35 -5,6 C 87 % 1027,5 hPa 0,0 l/m 11,1 km/h (2 Bft) W-SW 247 -7,4 C -16,8 C 10,3 km/h (2 Bft)
29.12.2014 20:40 -5,6 C 86 % 1027,8 hPa 0,0 l/m 10,9 km/h (2 Bft) W 270 -7,6 C -16,3 C 12,1 km/h (2 Bft)
29.12.2014 20:45 -5,6 C 86 % 1027,8 hPa 0,0 l/m 11,6 km/h (2 Bft) W-SW 247 -7,6 C -17,2 C 11,6 km/h (2 Bft)
29.12.2014 20:50 -5,5 C 86 % 1027,8 hPa 0,0 l/m 10,8 km/h (2 Bft) W 270 -7,5 C -16,1 C 11,4 km/h (2 Bft)
29.12.2014 20:55 -5,5 C 86 % 1027,8 hPa 0,0 l/m 10,1 km/h (2 Bft) W 270 -7,5 C -15,2 C 10,0 km/h (2 Bft)
29.12.2014 21:00 -5,5 C 85 % 1028,2 hPa 0,0 l/m 8,7 km/h (2 Bft) W-SW 247 -7,6 C -13,0 C 12,1 km/h (2 Bft)
29.12.2014 21:05 -5,5 C 85 % 1028,2 hPa 0,0 l/m 8,9 km/h (2 Bft) W 270 -7,6 C -13,4 C 12,4 km/h (3 Bft)
29.12.2014 21:10 -5,5 C 85 % 1028,2 hPa 0,0 l/m 9,3 km/h (2 Bft) W 270 -7,6 C -13,9 C 11,7 km/h (2 Bft)
29.12.2014 21:15 -5,5 C 84 % 1028,2 hPa 0,0 l/m 8,7 km/h (2 Bft) W-SW 247 -7,8 C -12,9 C 7,7 km/h (2 Bft)
29.12.2014 21:20 -5,5 C 84 % 1028,4 hPa 0,0 l/m 8,4 km/h (2 Bft) W 270 -7,8 C -12,4 C 9,5 km/h (2 Bft)
29.12.2014 21:25 -5,5 C 84 % 1028,4 hPa 0,0 l/m 7,6 km/h (2 Bft) W 270 -7,8 C -11,1 C 9,5 km/h (2 Bft)
29.12.2014 21:28 -5,5 C 84 % 1028,4 hPa 0,0 l/m 9,0 km/h (2 Bft) S 180 -7,8 C -13,4 C 18,2 km/h (3 Bft)
29.12.2014 21:30 -5,5 C 84 % 1028,4 hPa 0,0 l/m 10,1 km/h (2 Bft) W-SW 247 -7,8 C -15,0 C 8,7 km/h (2 Bft)
29.12.2014 21:35 -5,5 C 83 % 1028,7 hPa 0,0 l/m 11,1 km/h (2 Bft) W 270 -7,9 C -16,4 C 14,0 km/h (3 Bft)
29.12.2014 21:40 -5,5 C 83 % 1028,7 hPa 0,0 l/m 9,8 km/h (2 Bft) W-SW 247 -7,9 C -14,6 C 6,9 km/h (2 Bft)
29.12.2014 21:45 -5,5 C 84 % 1028,7 hPa 0,0 l/m 8,7 km/h (2 Bft) SW 225 -7,8 C -12,9 C 5,1 km/h (1 Bft)
29.12.2014 21:50 -5,6 C 84 % 1028,7 hPa 0,0 l/m 8,5 km/h (2 Bft) W-SW 247 -7,9 C -12,7 C 8,7 km/h (2 Bft)
29.12.2014 21:55 -5,6 C 84 % 1028,7 hPa 0,0 l/m 6,9 km/h (2 Bft) W-SW 247 -7,9 C -10,1 C 6,8 km/h (2 Bft)
29.12.2014 22:00 -5,6 C 85 % 1028,7 hPa 0,0 l/m 6,3 km/h (2 Bft) W 270 -7,7 C -9,1 C 7,4 km/h (2 Bft)
29.12.2014 22:05 -5,6 C 85 % 1028,7 hPa 0,0 l/m 6,8 km/h (2 Bft) S 180 -7,7 C -9,8 C 7,4 km/h (2 Bft)
29.12.2014 22:10 -5,6 C 85 % 1028,7 hPa 0,0 l/m 7,4 km/h (2 Bft) W-SW 247 -7,7 C -10,9 C 2,1 km/h (1 Bft)
29.12.2014 22:15 -5,6 C 85 % 1029,0 hPa 0,0 l/m 6,4 km/h (2 Bft) W 270 -7,7 C -9,1 C 6,9 km/h (2 Bft)
29.12.2014 22:20 -5,6 C 86 % 1029,0 hPa 0,0 l/m 5,3 km/h (1 Bft) W 270 -7,6 C -8,6 C 5,3 km/h (1 Bft)
29.12.2014 22:25 -5,6 C 86 % 1029,0 hPa 0,0 l/m 5,5 km/h (1 Bft) W-NW 292 -7,6 C -8,7 C 5,3 km/h (1 Bft)
29.12.2014 22:30 -5,6 C 86 % 1029,0 hPa 0,0 l/m 5,1 km/h (1 Bft) W-SW 247 -7,6 C -8,6 C 8,7 km/h (2 Bft)
29.12.2014 22:35 -5,6 C 86 % 1029,2 hPa 0,0 l/m 5,1 km/h (1 Bft) W 270 -7,6 C -8,6 C 7,9 km/h (2 Bft)
29.12.2014 22:40 -5,6 C 86 % 1029,2 hPa 0,0 l/m 5,6 km/h (1 Bft) W 270 -7,6 C -8,9 C 3,5 km/h (1 Bft)
29.12.2014 22:45 -5,6 C 86 % 1029,2 hPa 0,0 l/m 5,6 km/h (1 Bft) W 270 -7,6 C -8,9 C 3,5 km/h (1 Bft)
29.12.2014 22:50 -5,6 C 86 % 1029,2 hPa 0,0 l/m 4,5 km/h (1 Bft) W-SW 247 -7,6 C -8,2 C 3,7 km/h (1 Bft)
29.12.2014 22:55 -5,6 C 86 % 1029,2 hPa 0,0 l/m 3,5 km/h (1 Bft) W-NW 292 -7,6 C -7,6 C 3,9 km/h (1 Bft)
29.12.2014 23:00 -5,6 C 86 % 1029,4 hPa 0,0 l/m 3,9 km/h (1 Bft) NW 315 -7,6 C -7,8 C 4,2 km/h (1 Bft)
29.12.2014 23:05 -5,5 C 86 % 1029,4 hPa 0,0 l/m 4,5 km/h (1 Bft) W-SW 247 -7,5 C -8,2 C 7,6 km/h (2 Bft)
29.12.2014 23:10 -5,6 C 86 % 1029,4 hPa 0,0 l/m 4,7 km/h (1 Bft) NW 315 -7,6 C -8,2 C 2,9 km/h (1 Bft)
29.12.2014 23:15 -5,6 C 86 % 1029,4 hPa 0,0 l/m 4,5 km/h (1 Bft) W-NW 292 -7,6 C -8,1 C 7,7 km/h (2 Bft)
29.12.2014 23:20 -5,6 C 86 % 1029,6 hPa 0,0 l/m 3,9 km/h (1 Bft) W 270 -7,6 C -7,7 C 5,3 km/h (1 Bft)
29.12.2014 23:25 -5,5 C 86 % 1029,6 hPa 0,0 l/m 4,7 km/h (1 Bft) W-NW 292 -7,5 C -8,2 C 7,4 km/h (2 Bft)
29.12.2014 23:30 -5,5 C 86 % 1029,6 hPa 0,0 l/m 5,8 km/h (2 Bft) W 270 -7,5 C -8,8 C 5,3 km/h (1 Bft)
29.12.2014 23:35 -5,6 C 86 % 1029,6 hPa 0,0 l/m 5,8 km/h (2 Bft) NW 315 -7,6 C -8,8 C 5,5 km/h (1 Bft)
29.12.2014 23:40 -5,5 C 86 % 1029,6 hPa 0,0 l/m 5,6 km/h (1 Bft) W-SW 247 -7,5 C -8,7 C 5,3 km/h (1 Bft)
29.12.2014 23:45 -5,5 C 86 % 1029,6 hPa 0,0 l/m 6,6 km/h (2 Bft) W-SW 247 -7,5 C -9,4 C 6,3 km/h (2 Bft)
29.12.2014 23:50 -5,5 C 86 % 1029,6 hPa 0,0 l/m 5,8 km/h (2 Bft) W-NW 292 -7,5 C -8,8 C 3,7 km/h (1 Bft)
29.12.2014 23:55 -5,5 C 86 % 1029,6 hPa 0,0 l/m 4,5 km/h (1 Bft) W 270 -7,5 C -8,1 C 4,0 km/h (1 Bft)
_ Min-Zeit 05:00 11:25 13:10 - 08:35 - - 05:00 17:35 08:50
Minimum _ -17,8 C 68 % 1024,7 hPa - 0,0 km/h (0 Bft) - - -21,1 C -21,6 C 0,0 km/h (0 Bft)
_ Max-Zeit 11:15 20:35 23:55 23:55 17:35 - - 20:35 22:55 15:20
Maximum _ -5,2 C 87 % 1029,6 hPa 0,0 l/m 15,1 km/h
W (3 Bft)
- - -7,4 C -7,6 C 27,5 km/h
SW (4 Bft)
Durchschnitt _ -8,8 C 81 % 1026,3 hPa #0,0 l/m 6,3 km/h (2 Bft) W - -11,4 C -14,5 C 8,1 km/h (2 Bft)